WA8SIE Weather Reports


time (UTC)temp
C
wind
direction
speed
KPH
gust
KPH
rain 1hr
cm
rain 24hr
cm
rain mn
cm
humidity
%
barometer
mb
20260902062010 23 181 0.0 0.0 0.00 0.00 0.00 100 1013.2
20260902061511 23 181 0.0 0.0 0.00 0.00 0.00 100 1013.2
20260902061010 23 181 0.0 0.0 0.00 0.00 0.00 100 1013.1
20260902060510 23 181 0.0 0.0 0.00 0.00 0.00 100 1013.1
20260902060011 23 181 0.0 0.0 0.00 0.00 0.00 100 1013.1
20260902055510 23 181 0.0 0.0 0.00 0.00 0.00 100 1012.9
20260902055010 23 181 0.0 0.0 0.00 0.00 0.00 100 1012.9
20260902054510 23 181 0.0 0.0 0.00 0.00 0.00 100 1012.9
20260902054010 23 181 0.0 0.0 0.00 0.00 0.00 100 1012.9
20260902053510 23 181 0.0 0.0 0.00 0.00 0.00 100 1012.9
20260902053011 23 181 0.0 0.0 0.00 0.00 0.00 100 1012.9
20260902051511 23 182 0.0 0.0 0.00 0.00 0.00 100 1012.8
20260902051011 23 181 0.0 3.2 0.00 0.00 0.00 100 1012.7
20260902050511 23 181 0.0 3.2 0.00 0.00 0.00 100 1012.7
20260902050012 23 181 0.0 0.0 0.00 0.00 0.00 100 1012.7
20260902045511 23 181 0.0 0.0 0.00 0.00 0.00 100 1012.6
20260902045011 23 181 0.0 0.0 0.00 0.00 0.00 100 1012.6
20260902044513 23 181 0.0 0.0 0.00 0.00 0.00 100 1012.6
20260902044011 23 181 0.0 0.0 0.00 0.00 0.00 100 1012.7
20260902043511 23 181 0.0 0.0 0.00 0.00 0.00 100 1012.7
20260902043013 23 181 0.0 3.2 0.00 0.00 0.00 100 1012.7
20260902042511 23 182 0.0 3.2 0.00 0.00 0.00 99 1012.6
20260902042013 23 181 0.0 0.0 0.00 0.00 0.00 99 1012.6
20260902041513 23 181 0.0 1.6 0.00 0.00 0.00 99 1012.6
20260902040513 24 181 0.0 0.0 0.00 0.00 0.00 99 1012.8
20260902035511 24 182 0.0 0.0 0.00 0.00 0.00 98 1012.6
20260902035011 24 181 0.0 0.0 0.00 0.00 0.00 98 1012.6
20260902034513 24 181 0.0 0.0 0.00 0.00 0.00 98 1012.6
20260902034012 24 181 0.0 0.0 0.00 0.00 0.00 97 1012.5
20260902033511 24 181 0.0 0.0 0.00 0.00 0.00 97 1012.5
20260902033011 24 181 0.0 0.0 0.00 0.00 0.00 97 1012.5
20260902032511 24 181 0.0 0.0 0.00 0.00 0.00 97 1012.5
20260902032011 24 181 0.0 0.0 0.00 0.00 0.00 97 1012.5
20260902031511 24 181 0.0 0.0 0.00 0.00 0.00 97 1012.5
20260902031011 25 182 0.0 0.0 0.00 0.00 0.00 96 1012.6
20260902030011 25 181 0.0 0.0 0.00 0.00 0.00 96 1012.6
20260902025511 25 181 0.0 0.0 0.00 0.00 0.00 95 1012.6
20260902024013 25 181 0.0 0.0 0.00 0.00 0.00 95 1012.7
20260902023011 25 181 0.0 1.6 0.00 0.00 0.00 95 1012.7
20260902022511 25 181 0.0 3.2 0.00 0.00 0.00 94 1012.5
20260902022013 25 181 0.0 3.2 0.00 0.00 0.00 94 1012.5
20260902021511 25 181 0.0 1.6 0.00 0.00 0.00 94 1012.5
20260902021011 25 181 0.0 1.6 0.00 0.00 0.00 93 1012.5
20260902020511 25 181 0.0 0.0 0.00 0.00 0.00 93 1012.5
20260902020011 25 183 0.0 0.0 0.00 0.00 0.00 93 1012.5
20260902015511 25 184 0.0 0.0 0.00 0.00 0.00 93 1012.4
20260902015011 25 184 0.0 0.0 0.00 0.00 0.00 93 1012.4
20260902014510 26 185 0.0 0.0 0.00 0.00 0.00 92 1012.4
20260902014011 26 184 0.0 0.0 0.00 0.00 0.00 92 1012.4
20260902013511 26 184 0.0 0.0 0.00 0.00 0.00 92 1012.4
20260902013011 26 184 0.0 0.0 0.00 0.00 0.00 91 1012.4
20260902012511 26 184 0.0 0.0 0.00 0.00 0.00 91 1012.3
20260902012014 -17 0.0 0.0 0.79 0.00 0.00
20260902011512 -17 0.0 0.0 0.79 0.00 0.00
20260902011012 -17 0.0 0.0 0.79 0.00 0.00
20260902010511 -17 0.0 0.0 0.79 0.00 0.00
20260902005010 -17 0.0 0.0 0.79 0.00 0.00
20260902004511 -17 0.0 0.0 0.79 0.00 0.00
20260902004011 -17 0.0 0.0 0.79 0.00 0.00
20260902002510 -17 0.0 0.0 0.79 0.00 0.00
20260902002010 -17 0.0 0.0 0.79 0.00 0.00
20260902001511 -17 0.0 0.0 0.79 0.00 0.00
20260902001011 -17 0.0 0.0 0.79 0.00 0.00
20260902000010 -17 0.0 0.0 0.79 0.00 0.00
20260901235512 -17 0.0 0.0 0.79 0.00 0.00
20260901235010 -17 0.0 0.0 0.79 0.00 0.00
20260901234510 -17 0.0 0.0 0.79 0.00 0.00
20260901234011 -17 0.0 0.0 0.79 0.00 0.00
20260901233510 -17 0.0 0.0 0.79 0.00 0.00
20260901231510 -17 0.0 0.0 0.79 0.00 0.00
20260901230510 -17 0.0 0.0 0.79 0.00 0.00
20260901230010 -17 0.0 0.0 0.79 0.00 0.00
20260901225511 30 184 0.0 4.8 0.00 0.00 0.00 68 1011.6
20260901225011 31 185 0.0 0.0 0.00 0.00 0.00 68 1011.6
20260901224011 31 184 0.0 8.0 0.00 0.00 0.00 64 1011.6
20260901223511 31 184 0.0 9.7 0.00 0.00 0.00 62 1011.6
20260901222011 31 203 0.0 9.7 0.00 0.00 0.00 61 1011.8
20260901221511 31 203 0.0 9.7 0.00 0.00 0.00 61 1011.8
20260901221011 32 197 0.0 6.4 0.00 0.00 0.00 60 1011.8
20260901220511 32 204 0.0 6.4 0.00 0.00 0.00 61 1011.8
20260901220011 32 200 0.0 11.3 0.00 0.00 0.00 58 1011.8
20260901215511 32 200 3.2 11.3 0.00 0.00 0.00 58 1011.9
20260901214511 32 172 0.0 16.1 0.00 0.00 0.00 57 1011.9
20260901214013 32 195 0.0 11.3 0.00 0.00 0.00 58 1012.1
20260901213513 32 195 0.0 11.3 0.00 0.00 0.00 56 1012.1
20260901213011 32 198 0.0 4.8 0.00 0.00 0.00 55 1012.1
20260901212511 32 198 0.0 6.4 0.00 0.00 0.00 56 1012.4
20260901212012 32 198 0.0 6.4 0.00 0.00 0.00 54 1012.4
20260901211511 32 200 0.0 8.0 0.00 0.00 0.00 55 1012.4
20260901211011 32 200 0.0 9.7 0.00 0.00 0.00 56 1012.4
20260901210512 32 179 0.0 9.7 0.00 0.00 0.00 54 1012.4
20260901210013 32 190 0.0 6.4 0.00 0.00 0.00 56 1012.4
20260901205511 32 201 0.0 6.4 0.00 0.00 0.00 55 1012.3
20260901205011 32 201 0.0 6.4 0.00 0.00 0.00 54 1012.3
20260901204511 32 203 0.0 8.0 0.00 0.00 0.00 56 1012.3
20260901204011 32 195 0.0 8.0 0.00 0.00 0.00 55 1012.4
20260901203511 32 195 8.0 6.4 0.00 0.00 0.00 55 1012.4
20260901203011 32 191 0.0 8.0 0.00 0.00 0.00 56 1012.4
20260901202513 32 191 0.0 8.0 0.00 0.00 0.00 56 1012.7
20260901201511 32 190 0.0 6.4 0.00 0.00 0.00 56 1012.7
20260901201011 32 191 4.8 4.8 0.00 0.00 0.00 58 1012.9
20260901200511 31 191 0.0 4.8 0.00 0.00 0.00 60 1012.9
20260901195511 31 310 0.0 0.0 0.00 0.00 0.00 66 1012.9
20260901195011 31 309 0.0 0.0 0.00 0.00 0.00 62 1012.9
20260901194011 32 309 0.0 0.0 0.00 0.00 0.00 61 1012.9
20260901193511 32 309 0.0 0.0 0.00 0.00 0.00 59 1012.9
20260901193011 32 309 0.0 0.0 0.00 0.00 0.00 55 1012.9
20260901192511 32 309 0.0 6.4 0.00 0.00 0.00 56 1013.1
20260901192011 32 306 0.0 6.4 0.00 0.00 0.00 55 1013.1
20260901191511 32 296 4.8 6.4 0.00 0.00 0.00 53 1013.1
20260901191011 32 298 0.0 6.4 0.00 0.00 0.00 54 1013.1
20260901190510 32 299 0.0 0.0 0.00 0.00 0.00 55 1013.1
20260901190014 32 297 0.0 4.8 0.00 0.00 0.00 55 1013.1
20260901185511 33 2 0.0 11.3 0.00 0.00 0.00 52 1012.9
20260901184511 33 315 9.7 14.5 0.00 0.00 0.00 52 1012.9
20260901184011 33 326 0.0 9.7 0.00 0.00 0.00 54 1013.2
20260901183512 33 327 0.0 9.7 0.00 0.00 0.00 51 1013.2
20260901182012 33 4.8 8.0 0.00 0.00 0.00 51 1013.4
20260901181011 33 356 6.4 8.0 0.00 0.00 0.00 54 1013.8
20260901180512 33 309 0.0 6.4 0.00 0.00 0.00 51 1013.8
20260901180012 33 235 0.0 1.6 0.00 0.00 0.00 55 1013.8
20260901175510 33 301 0.0 8.0 0.00 0.00 0.00 55 1013.9
20260901175011 33 51 0.0 17.7 0.00 0.00 0.00 56 1013.9
20260901174511 33 46 0.0 17.7 0.00 0.00 0.00 55 1013.9
20260901174010 32 178 6.4 9.7 0.00 0.00 0.00 53 1013.9
20260901173511 32 134 0.0 9.7 0.00 0.00 0.00 56 1013.9
20260901173011 33 195 0.0 8.0 0.00 0.00 0.00 56 1013.9
20260901172511 33 276 0.0 8.0 0.00 0.00 0.00 58 1014.1
20260901172011 32 288 0.0 8.0 0.00 0.00 0.00 59 1014.1
20260901171512 32 321 0.0 6.4 0.00 0.00 0.00 57 1014.1
20260901171010 32 195 0.0 6.4 0.00 0.00 0.00 58 1014.4
20260901170510 32 222 0.0 9.7 0.00 0.00 0.00 59 1014.4
20260901170011 32 181 0.0 9.7 0.00 0.00 0.00 59 1014.4
20260901165511 32 300 4.8 4.8 0.00 0.00 0.00 61 1014.3
20260901165010 32 247 0.0 11.3 0.00 0.00 0.00 59 1014.3
20260901164512 32 196 0.0 14.5 0.00 0.00 0.00 61 1014.3
20260901164012 32 296 0.0 14.5 0.00 0.00 0.00 59 1014.3
20260901163510 32 181 0.0 8.0 0.00 0.00 0.00 60 1014.3
20260901162511 31 274 0.0 6.4 0.00 0.00 0.00 62 1014.2
20260901162010 31 176 0.0 6.4 0.00 0.00 0.00 63 1014.2
20260901161012 31 186 3.2 8.0 0.00 0.00 0.00 63 1014.3
20260901160512 31 186 0.0 9.7 0.00 0.00 0.00 65 1014.3
20260901160010 31 206 0.0 9.7 0.00 0.00 0.00 65 1014.3
20260901155511 31 200 0.0 0.0 0.00 0.00 0.00 65 1014.4
20260901155010 31 200 0.0 1.6 0.00 0.00 0.00 65 1014.4
20260901154511 31 307 0.0 8.0 0.00 0.00 0.00 67 1014.4
20260901154012 30 41 0.0 8.0 0.00 0.00 0.00 66 1014.4
20260901153510 30 307 1.6 6.4 0.00 0.00 0.00 68 1014.4
20260901152010 30 268 0.0 4.8 0.00 0.00 0.00 69 1014.5
20260901151010 30 330 0.0 6.4 0.00 0.00 0.00 70 1014.5
20260901150010 30 260 4.8 4.8 0.00 0.00 0.00 72 1014.5
20260901145510 29 210 0.0 6.4 0.00 0.00 0.00 71 1014.5
20260901145012 29 224 0.0 6.4 0.00 0.00 0.00 71 1014.5
20260901144510 29 343 0.0 3.2 0.00 0.00 0.00 72 1014.5
20260901143510 28 332 0.0 0.0 0.00 0.00 0.00 74 1014.6
20260901143012 28 331 0.0 3.2 0.00 0.00 0.00 74 1014.6
20260901142510 28 332 0.0 4.8 0.00 0.00 0.00 75 1014.6
20260901142010 28 332 0.0 6.4 0.00 0.00 0.00 76 1014.6
20260901141011 27 197 0.0 0.0 0.00 0.00 0.00 77 1014.6
20260901140511 27 197 0.0 0.0 0.00 0.00 0.00 78 1014.6
20260901140011 27 198 0.0 0.0 0.00 0.00 0.00 78 1014.6
20260901135511 27 198 0.0 0.0 0.00 0.00 0.00 78 1014.7
20260901135011 27 197 0.0 0.0 0.00 0.00 0.00 79 1014.7
20260901134511 27 197 0.0 0.0 0.00 0.00 0.00 81 1014.7
20260901134013 27 197 0.0 0.0 0.00 0.00 0.00 82 1014.7
20260901133511 26 197 0.0 0.0 0.00 0.00 0.00 83 1014.7
20260901133011 26 198 0.0 0.0 0.00 0.00 0.00 84 1014.7
20260901132511 26 198 0.0 0.0 0.00 0.00 0.00 85 1014.9
20260901132011 26 198 0.0 0.0 0.00 0.00 0.00 88 1014.9
20260901130511 25 198 0.0 0.0 0.00 0.00 0.00 93 1014.9
20260901130011 24 198 0.0 0.0 0.00 0.00 0.00 95 1014.9
20260901125011 24 198 0.0 0.0 0.00 0.00 0.00 99 1015.0
20260901124511 23 198 0.0 0.0 0.00 0.00 0.00 100 1015.0
20260901123511 23 198 0.0 4.8 0.00 0.00 0.00 100 1015.1
20260901123011 23 198 0.0 4.8 0.00 0.00 0.00 100 1015.1
20260901122511 23 198 0.0 4.8 0.00 0.00 0.00 100 1015.1
20260901122011 22 198 3.2 4.8 0.00 0.00 0.00 100 1015.1
20260901121511 22 198 3.2 4.8 0.00 0.00 0.00 100 1015.1
20260901121011 22 198 0.0 0.0 0.00 0.00 0.00 100 1015.0
20260901120511 22 198 0.0 0.0 0.00 0.00 0.00 100 1015.0
20260901120011 22 198 0.0 0.0 0.00 0.00 0.00 100 1015.0
20260901115511 22 198 0.0 0.0 0.00 0.00 0.00 100 1014.7
20260901115011 22 198 0.0 0.0 0.00 0.00 0.00 100 1014.7
20260901114511 22 198 0.0 0.0 0.00 0.00 0.00 100 1014.7
20260901114012 22 198 0.0 0.0 0.00 0.00 0.00 100 1014.5
20260901113511 22 199 0.0 0.0 0.00 0.00 0.00 100 1014.5
20260901113011 22 198 0.0 0.0 0.00 0.00 0.00 100 1014.5
20260901112011 22 198 0.0 0.0 0.00 0.00 0.00 100 1014.5
20260901111511 22 198 0.0 0.0 0.00 0.00 0.00 100 1014.5
20260901111011 21 198 0.0 0.0 0.00 0.00 0.00 100 1014.3
20260901110512 21 198 0.0 0.0 0.00 0.00 0.00 100 1014.3
20260901105511 22 198 0.0 0.0 0.00 0.00 0.00 100 1014.1
20260901105011 22 198 0.0 0.0 0.00 0.00 0.00 100 1014.1
20260901104511 22 198 0.0 0.0 0.00 0.00 0.00 100 1014.1
20260901103511 22 198 0.0 0.0 0.00 0.00 0.00 100 1013.9
20260901103011 22 198 0.0 0.0 0.00 0.00 0.00 100 1013.9
20260901102511 22 198 0.0 0.0 0.00 0.00 0.00 100 1013.8
20260901102011 22 198 0.0 0.0 0.00 0.00 0.00 100 1013.8
20260901101511 22 199 0.0 0.0 0.00 0.00 0.00 100 1013.8
20260901101011 22 198 0.0 0.0 0.00 0.00 0.00 100 1013.6
20260901100012 22 198 0.0 0.0 0.00 0.00 0.00 100 1013.6
20260901095511 22 198 0.0 0.0 0.00 0.00 0.00 100 1013.5
20260901095011 22 198 0.0 0.0 0.00 0.00 0.00 100 1013.5
20260901094512 22 198 0.0 0.0 0.00 0.00 0.00 100 1013.5
20260901094012 22 198 0.0 0.0 0.00 0.00 0.00 100 1013.5
20260901093511 22 198 0.0 0.0 0.00 0.00 0.00 100 1013.5
20260901093011 22 198 0.0 0.0 0.00 0.00 0.00 100 1013.5
20260901092511 22 198 0.0 0.0 0.00 0.00 0.00 100 1013.5
20260901091012 22 198 0.0 0.0 0.00 0.00 0.00 100 1013.2
20260901090511 22 198 0.0 0.0 0.00 0.00 0.00 100 1013.2
20260901090010 22 198 0.0 0.0 0.00 0.00 0.00 100 1013.2
20260901085510 22 198 0.0 0.0 0.00 0.00 0.00 100 1013.3
20260901085011 22 198 0.0 0.0 0.00 0.00 0.00 100 1013.3
20260901084511 22 198 0.0 0.0 0.00 0.00 0.00 100 1013.3
20260901084011 22 198 0.0 0.0 0.00 0.00 0.00 100 1013.1
20260901083510 22 198 0.0 0.0 0.00 0.00 0.00 100 1013.1
20260901082011 22 198 0.0 0.0 0.00 0.00 0.00 100 1013.1
20260901081512 22 198 0.0 0.0 0.00 0.00 0.00 100 1013.1
20260901081010 22 198 0.0 0.0 0.00 0.00 0.00 100 1013.2
20260901080511 22 198 0.0 0.0 0.00 0.00 0.00 100 1013.2
20260901080010 22 198 0.0 0.0 0.00 0.00 0.00 100 1013.2
20260901075511 22 198 0.0 0.0 0.00 0.00 0.00 100 1013.1
20260901075011 22 198 0.0 0.0 0.00 0.00 0.00 100 1013.1
20260901074511 22 198 0.0 0.0 0.00 0.00 0.00 100 1013.1
20260901074012 22 198 0.0 0.0 0.00 0.00 0.00 100 1012.9
20260901073511 22 198 0.0 0.0 0.00 0.00 0.00 100 1012.9
20260901073010 23 198 0.0 0.0 0.00 0.00 0.00 100 1012.9
20260901072510 23 198 0.0 0.0 0.00 0.00 0.00 100 1013.0
20260901072011 23 198 0.0 0.0 0.00 0.00 0.00 100 1013.0
20260901071511 23 198 0.0 0.0 0.00 0.00 0.00 100 1013.0
20260901071010 23 198 0.0 0.0 0.00 0.00 0.00 100 1013.0
20260901070510 23 198 0.0 0.0 0.00 0.00 0.00 100 1013.0
20260901065511 23 198 0.0 0.0 0.00 0.00 0.00 100 1012.9
20260901065010 23 198 0.0 0.0 0.00 0.00 0.00 100 1012.9
20260901064510 23 199 0.0 0.0 0.00 0.00 0.00 100 1012.9
20260901064010 23 198 0.0 0.0 0.00 0.00 0.00 100 1012.9
20260901063511 23 198 0.0 0.0 0.00 0.00 0.00 100 1012.9
20260901063010 23 198 0.0 0.0 0.00 0.00 0.00 100 1012.9
20260901062510 23 198 0.0 0.0 0.00 0.00 0.00 100 1013.0